Content
SEND FEEDBACK

Daily
Averages
Monthly
Summary
United States of America

BERKELEY, MISSOURI


Home > North America > United States > Missouri
Elevation: 564 feet     Latitude: 38 45N     Longitude: 090 22W

WEATHER
 
SELECT A DAY
Number of Records: 203,607;   Date Range: 1/1/95 - 9/3/14
 
SHARE

PRINT THIS DATA

[ ← Previous Day ]
WEATHER ALMANAC - FEBRUARY 19, 2013
[ Next Day → ]
[ °C ]   °F
Weather ElementAverageHighLow
Temperature29 °F33.1 °F (2:51 pm)24.1 °F (11:51 pm)
Dewpoint14 °F21.9 °F (12:51 am)9 °F (11:51 pm)
Humidity54 %66 % (12:51 am)43 % (3:51 pm)
Barometer30.16 in30.33 in (9:51 pm)29.95 in (12:51 am)
Wind Speed16.1 mph21.9 mph (8:51 am)
Wind Gust35.7 mph (8:51 am)
Weather ElementAverage
Visibility10 mi
Wind DirectionWNW (292.3 °)

Weather ElementTotal
Precipitation---
Heating Degree Days36.4 (Base 65)
Averaged from 22 records on February 19, 2013
WEATHER CONDITIONS BREAKOUT
WIND DIRECTION BREAKOUT
WEATHER BY HOUR - FEBRUARY 19, 2013
[ °C ]   °F
Local TimeTemperatureDewpointHumidityBarometerVisibilityWind DirectionWind SpeedGust SpeedPrecipitationEventsConditions
12:51 AM32.0 °F21.9 °F66 %29.95 in10.0 miWest (280°)18.4 mph25.3 mphMostly Cloudy
1:51 AM30.9 °F19.0 °F61 %29.96 in10.0 miWest (280°)19.6 mph25.3 mphPartly Cloudy
2:51 AM30.0 °F17.1 °F59 %29.98 in10.0 miWest (280°)19.6 mph31.1 mphPartly Cloudy
3:51 AM28.9 °F17.1 °F61 %29.99 in10.0 miWest (280°)18.4 mph28.8 mphPartly Cloudy
4:51 AM28.9 °F17.1 °F61 %30.00 in10.0 miWest (280°)18.4 mph26.5 mphPartly Cloudy
5:51 AM27.0 °F16.0 °F63 %30.03 in10.0 miWNW (290°)16.1 mph24.2 mphPartly Cloudy
6:51 AM26.1 °F14.0 °F60 %30.06 in10.0 miWNW (300°)13.8 mph26.5 mphPartly Cloudy
7:51 AM27.0 °F14.0 °F58 %30.10 in10.0 miWNW (290°)19.6 mph29.9 mphPartly Cloudy
8:51 AM28.0 °F14.0 °F56 %30.12 in10.0 miWNW (290°)21.9 mph35.7 mphPartly Cloudy
9:51 AM30.0 °F14.0 °F51 %30.14 in10.0 miWNW (300°)20.7 mph28.8 mphPartly Cloudy
10:51 AM30.9 °F14.0 °F50 %30.17 in10.0 miWNW (300°)18.4 mph27.6 mphPartly Cloudy
12:51 PM32.0 °F15.1 °F50 %30.19 in10.0 miWNW (300°)17.3 mph28.8 mphPartly Cloudy
1:51 PM32.0 °F12.9 °F45 %30.20 in10.0 miWest (280°)21.9 mph27.6 mphPartly Cloudy
2:51 PM33.1 °F14.0 °F46 %30.21 in10.0 miNW (310°)19.6 mph28.8 mphPartly Cloudy
3:51 PM33.1 °F12.9 °F43 %30.23 in10.0 miNW (310°)17.3 mph28.8 mphPartly Cloudy
4:51 PM32.0 °F12.9 °F45 %30.24 in10.0 miWNW (300°)13.8 mphPartly Cloudy
6:51 PM28.0 °F10.9 °F49 %30.27 in10.0 miWNW (300°)15.0 mphClear
7:51 PM27.0 °F10.9 °F51 %30.29 in10.0 miWNW (300°)10.4 mphClear
8:51 PM27.0 °F10.9 °F51 %30.31 in10.0 miWNW (300°)8.1 mphClear
9:51 PM25.0 °F10.9 °F55 %30.33 in10.0 miWest (280°)9.2 mphClear
10:51 PM25.0 °F10.0 °F53 %30.33 in10.0 miWNW (290°)8.1 mphClear
11:51 PM24.1 °F9.0 °F53 %30.33 in10.0 miWNW (290°)8.1 mphClear
Hourly data recorded from KSTL, located miles away from Berkeley, Missouri







STORIES FROM OUR PARTNERS